TimeAKDT,TemperatureF,Dew PointF,Humidity,Sea Level PressureIn,VisibilityMPH,Wind Direction,Wind SpeedMPH,Gust SpeedMPH,PrecipitationIn,Events,Conditions,WindDirDegrees,DateUTC
12:16 AM,53.6,44.6,72,29.77,10.0,Calm,Calm,-,N/A,,Overcast,0,2013-06-23 08:16:00
12:36 AM,51.8,44.6,76,29.77,10.0,Calm,Calm,-,N/A,,Mostly Cloudy,0,2013-06-23 08:36:00
12:56 AM,51.8,44.6,76,29.77,10.0,Calm,Calm,-,N/A,,Overcast,0,2013-06-23 08:56:00
1:16 AM,51.8,46.4,82,29.76,10.0,SSE,3.5,-,N/A,,Overcast,160,2013-06-23 09:16:00
1:36 AM,51.8,46.4,82,29.76,10.0,Calm,Calm,-,N/A,,Overcast,0,2013-06-23 09:36:00
1:56 AM,50.0,46.4,87,29.75,10.0,Calm,Calm,-,N/A,,Overcast,0,2013-06-23 09:56:00
2:16 AM,50.0,46.4,87,29.75,10.0,Calm,Calm,-,N/A,,Mostly Cloudy,0,2013-06-23 10:16:00
2:36 AM,51.8,46.4,82,29.74,10.0,Calm,Calm,-,N/A,,Overcast,0,2013-06-23 10:36:00
2:56 AM,50.0,46.4,87,29.74,10.0,Calm,Calm,-,N/A,,Overcast,0,2013-06-23 10:56:00
3:16 AM,50.0,46.4,87,29.74,10.0,Calm,Calm,-,N/A,,Overcast,0,2013-06-23 11:16:00
3:36 AM,48.2,44.6,87,29.74,10.0,Calm,Calm,-,N/A,,Overcast,0,2013-06-23 11:36:00
3:56 AM,48.2,46.4,93,29.73,10.0,Calm,Calm,-,N/A,,Mostly Cloudy,0,2013-06-23 11:56:00
4:16 AM,48.2,46.4,93,29.73,10.0,Calm,Calm,-,N/A,,Overcast,0,2013-06-23 12:16:00
4:36 AM,48.2,44.6,87,29.73,10.0,Calm,Calm,-,N/A,,Overcast,0,2013-06-23 12:36:00
4:56 AM,48.2,44.6,87,29.73,10.0,Calm,Calm,-,N/A,,Overcast,0,2013-06-23 12:56:00
5:16 AM,48.2,44.6,87,29.73,10.0,Calm,Calm,-,N/A,,Overcast,0,2013-06-23 13:16:00
5:36 AM,48.2,44.6,87,29.73,10.0,Calm,Calm,-,N/A,,Overcast,0,2013-06-23 13:36:00
5:56 AM,48.2,44.6,87,29.72,10.0,Calm,Calm,-,N/A,,Overcast,0,2013-06-23 13:56:00
6:16 AM,48.2,46.4,93,29.72,10.0,NE,3.5,-,N/A,,Overcast,50,2013-06-23 14:16:00
6:36 AM,48.2,44.6,87,29.72,7.0,Calm,Calm,-,N/A,,Overcast,0,2013-06-23 14:36:00
6:56 AM,48.2,46.4,93,29.71,10.0,East,4.6,-,N/A,,Overcast,90,2013-06-23 14:56:00
7:16 AM,48.2,46.4,93,29.71,8.0,ESE,5.8,-,N/A,,Overcast,110,2013-06-23 15:16:00
7:36 AM,48.2,46.4,93,29.71,8.0,ENE,3.5,-,N/A,,Overcast,60,2013-06-23 15:36:00
7:56 AM,48.2,46.4,93,29.71,9.0,Calm,Calm,-,0.01,,Overcast,0,2013-06-23 15:56:00
8:16 AM,50.0,46.4,87,29.70,10.0,Calm,Calm,-,N/A,,Overcast,0,2013-06-23 16:16:00
8:36 AM,51.8,46.4,82,29.71,10.0,Calm,Calm,-,N/A,,Overcast,0,2013-06-23 16:36:00
8:56 AM,51.8,46.4,82,29.70,10.0,Calm,Calm,-,N/A,,Overcast,0,2013-06-23 16:56:00
9:16 AM,53.6,46.4,77,29.70,10.0,East,3.5,-,N/A,,Overcast,100,2013-06-23 17:16:00
9:36 AM,53.6,48.2,82,29.70,10.0,East,4.6,-,N/A,,Overcast,90,2013-06-23 17:36:00
9:56 AM,55.4,48.2,77,29.70,10.0,East,6.9,-,N/A,,Overcast,80,2013-06-23 17:56:00
10:16 AM,55.4,46.4,72,29.70,10.0,ENE,5.8,-,N/A,,Overcast,70,2013-06-23 18:16:00
10:36 AM,55.4,46.4,72,29.70,10.0,NNE,4.6,-,N/A,,Overcast,20,2013-06-23 18:36:00
10:56 AM,57.2,46.4,67,29.70,10.0,Calm,Calm,-,N/A,,Overcast,0,2013-06-23 18:56:00
11:16 AM,57.2,46.4,67,29.70,10.0,Calm,Calm,-,N/A,,Scattered Clouds,0,2013-06-23 19:16:00
11:36 AM,59.0,46.4,63,29.69,10.0,Calm,Calm,-,N/A,,Partly Cloudy,0,2013-06-23 19:36:00
11:56 AM,60.8,46.4,59,29.68,10.0,SSW,5.8,-,N/A,,Clear,200,2013-06-23 19:56:00
12:16 PM,62.6,44.6,52,29.68,10.0,SE,4.6,-,N/A,,Clear,130,2013-06-23 20:16:00
12:36 PM,64.4,44.6,49,29.68,10.0,East,4.6,17.3,N/A,,Scattered Clouds,80,2013-06-23 20:36:00
12:56 PM,64.4,44.6,49,29.68,10.0,East,9.2,-,N/A,,Partly Cloudy,90,2013-06-23 20:56:00
1:16 PM,62.6,44.6,52,29.68,10.0,NE,5.8,-,N/A,,Scattered Clouds,40,2013-06-23 21:16:00
1:36 PM,64.4,44.6,49,29.68,10.0,NNE,6.9,-,N/A,,Overcast,30,2013-06-23 21:36:00
1:56 PM,64.4,44.6,49,29.67,10.0,East,8.1,-,N/A,,Overcast,90,2013-06-23 21:56:00
2:16 PM,64.4,46.4,52,29.68,10.0,Calm,Calm,-,N/A,,Overcast,0,2013-06-23 22:16:00
2:36 PM,64.4,46.4,52,29.67,10.0,NNW,3.5,-,N/A,,Overcast,340,2013-06-23 22:36:00
2:56 PM,66.2,42.8,43,29.67,10.0,NNE,3.5,-,N/A,,Overcast,30,2013-06-23 22:56:00
3:16 PM,64.4,46.4,52,29.67,10.0,West,3.5,-,N/A,,Overcast,260,2013-06-23 23:16:00
3:36 PM,66.2,42.8,43,29.66,10.0,East,10.4,-,N/A,,Overcast,100,2013-06-23 23:36:00
3:56 PM,66.2,44.6,46,29.66,10.0,East,5.8,-,N/A,,Overcast,100,2013-06-23 23:56:00
4:16 PM,66.2,42.8,43,29.65,10.0,South,4.6,-,N/A,,Overcast,190,2013-06-24 00:16:00
4:36 PM,66.2,42.8,43,29.65,10.0,SE,8.1,-,N/A,,Overcast,130,2013-06-24 00:36:00
4:56 PM,66.2,44.6,46,29.66,10.0,South,6.9,-,N/A,,Overcast,170,2013-06-24 00:56:00
5:16 PM,66.2,44.6,46,29.65,10.0,SW,4.6,-,N/A,,Mostly Cloudy,220,2013-06-24 01:16:00
5:36 PM,64.4,42.8,45,29.65,10.0,SW,10.4,-,N/A,,Scattered Clouds,220,2013-06-24 01:36:00
5:56 PM,64.4,42.8,45,29.65,10.0,SW,6.9,-,N/A,,Mostly Cloudy,220,2013-06-24 01:56:00
6:16 PM,64.4,42.8,45,29.65,10.0,WSW,9.2,-,N/A,,Partly Cloudy,240,2013-06-24 02:16:00
6:36 PM,64.4,42.8,45,29.64,10.0,WSW,9.2,-,N/A,,Partly Cloudy,250,2013-06-24 02:36:00
6:56 PM,64.4,44.6,49,29.64,10.0,WSW,8.1,-,N/A,,Clear,250,2013-06-24 02:56:00
7:16 PM,64.4,44.6,49,29.64,10.0,WSW,9.2,-,N/A,,Clear,250,2013-06-24 03:16:00
7:36 PM,64.4,44.6,49,29.64,10.0,WSW,8.1,-,N/A,,Clear,240,2013-06-24 03:36:00
7:56 PM,64.4,44.6,49,29.64,10.0,SW,5.8,-,N/A,,Partly Cloudy,230,2013-06-24 03:56:00
8:16 PM,64.4,44.6,49,29.64,10.0,South,5.8,-,N/A,,Clear,180,2013-06-24 04:16:00
8:36 PM,64.4,44.6,49,29.64,10.0,WSW,5.8,-,N/A,,Scattered Clouds,250,2013-06-24 04:36:00
8:56 PM,62.6,46.4,55,29.64,10.0,West,5.8,-,N/A,,Partly Cloudy,270,2013-06-24 04:56:00
9:16 PM,62.6,46.4,55,29.64,10.0,West,5.8,-,N/A,,Clear,260,2013-06-24 05:16:00
9:36 PM,62.6,44.6,52,29.64,10.0,WSW,3.5,-,N/A,,Clear,250,2013-06-24 05:36:00
9:56 PM,62.6,44.6,52,29.63,10.0,West,6.9,-,N/A,,Clear,270,2013-06-24 05:56:00
10:16 PM,59.0,46.4,63,29.63,10.0,West,5.8,-,N/A,,Clear,260,2013-06-24 06:16:00
10:36 PM,57.2,46.4,67,29.63,10.0,WNW,5.8,-,N/A,,Clear,290,2013-06-24 06:36:00
10:56 PM,57.2,44.6,63,29.63,10.0,West,4.6,-,N/A,,Clear,270,2013-06-24 06:56:00
11:16 PM,57.2,44.6,63,29.63,10.0,West,5.8,-,N/A,,Clear,280,2013-06-24 07:16:00
11:36 PM,55.4,44.6,67,29.63,10.0,West,3.5,-,N/A,,Clear,260,2013-06-24 07:36:00
11:56 PM,55.4,44.6,67,29.63,10.0,WSW,4.6,-,N/A,,Clear,240,2013-06-24 07:56:00